Regional Weather Roundup
Issued by NWS

Home | Current Version | Previous Version | Graphics & Text | Print | Product List | Glossary Off
Versions: 1 2 3 4 5 6 7 8 9 10 11 12 13 14 15 16 17 18 19 20 21 22 23 24 25 26 27 28 29 30 31 32 33 34 35 36 37 38 39 40 41 42 43 44 45 46 47 48 49 50

000
ASUS43 KDMX 140801
RWRIA

WEATHER ROUNDUP FOR IOWA
NATIONAL WEATHER SERVICE DES MOINES IA
200 AM CST THU DEC 14 2017

NOTE: "FAIR" INDICATES FEW OR NO CLOUDS BELOW 12,000 FEET WITH NO
SIGNIFICANT WEATHER AND/OR OBSTRUCTIONS TO VISIBILITY.

* - THESE STATIONS ARE NOT NWS STATIONS...THUS NOT UNDER NWS
QUALITY CONTROL.  THEY ALSO DO NOT REPORT WEATHER SUCH
AS PRECIPITATION OR FOG.

IAZ001>003-012>014-020>022-031>034-043>046-140900-
   NORTHWEST IOWA

CITY           SKY/WX    TMP DP  RH WIND       PRES   REMARKS
CARROLL *      CLOUDY    28  21  74 N13       29.98R WCI  18
CHEROKEE *     CLOUDY    27  23  85 N8        30.00R WCI  19
DENISON *      CLOUDY    30  25  80 N7        30.00F WCI  23
LE MARS *      CLOUDY    30  27  86 CALM      30.00S
ORANGE CITY *  CLOUDY    28  27  93 N3        29.99R
SHELDON *      CLOUDY    25  23  93 N9        29.97S WCI  15
SIOUX CITY     CLOUDY    33  27  78 N8        30.01S WCI  26
SPENCER        CLOUDY    25  18  74 N14       29.99R WCI  13
STORM LAKE *   CLOUDY    25  21  86 N12G18    29.98R WCI  14
$$

IAZ055>058-069>071-079>083-090>094-140900-
   SOUTHWEST IOWA

CITY           SKY/WX    TMP DP  RH WIND       PRES   REMARKS
ATLANTIC *     CLOUDY    32  25  74 N9G16     29.99R WCI  24
AUDUBON *      CLOUDY    28  23  80 N8        29.99S WCI  20
CLARINDA *       N/A     36  25  64 N9        30.02R WCI  29
COUNCIL BLFS * CLOUDY    36  27  69 N10G18    30.00R WCI  28
CRESTON *      CLOUDY    30  23  74 N12G20    29.98R WCI  21
HARLAN  *      CLOUDY    30  27  86 N7        30.02S WCI  23
LAMONI         CLOUDY    31  20  63 NW14      29.97R WCI  21
RED OAK *      CLOUDY    36  27  69 N9        30.01R WCI  29
SHENANDOAH *   CLOUDY    36  27  69 N8        30.01R WCI  29
$$

IAZ047>049-059>061-072>074-084-140900-
   CENTRAL IOWA

CITY           SKY/WX    TMP DP  RH WIND       PRES   REMARKS
AMES           CLOUDY    23  18  81 N7        29.98R WCI  15
ANKENY *       CLOUDY    25  18  74 N7        30.00R WCI  17
BOONE *        CLOUDY    23  18  80 N8        29.97R WCI  14
CHARITON *     MOCLDY    27  19  74 N8        29.96R WCI  18
DES MOINES     CLOUDY    29  19  66 N9        29.98R WCI  20
GRINNELL*      CLOUDY    25  18  74 N8        29.97R WCI  17
KNOXVILLE *    CLOUDY    28  16  59 N13       29.96R WCI  18
MARSHALLTOWN   CLOUDY    25  17  72 N9        29.97R WCI  15
NEWTON *       CLOUDY    27  18  69 N12       29.97R WCI  16
PELLA *        CLOUDY    26  19  73 N5        29.98R WCI  20
PERRY *        CLOUDY    28  19  71 N8        29.99R WCI  19
$$

IAZ004>006-015-016-023>025-035-036-140900-
   NORTH CENTRAL IOWA

CITY           SKY/WX    TMP DP  RH WIND       PRES   REMARKS
ALGONA *       CLOUDY    23  19  86 N9        29.97S WCI  13
CLARION *      CLOUDY    23  18  80 N10       29.98R WCI  12
ESTHERVILLE    CLOUDY    21  16  81 N8        29.98R WCI  11
FORT DODGE *   CLOUDY    24  17  74 N8        29.98R WCI  15
MASON CITY     CLOUDY    21  15  78 N8        29.98R WCI  11
FOREST CITY *  CLOUDY    23  19  86 N8        29.97S WCI  14
WEBSTER CITY * CLOUDY    19  14  79 N8        29.96R WCI   9
IOWA FALLS *   CLOUDY    25  18  74 N8        29.99R WCI  17
$$

IAZ007>011-017>019-026>030-037>042-050>054-066-140900-
   NORTHEAST IOWA

CITY           SKY/WX    TMP DP  RH WIND       PRES   REMARKS
CEDAR RAPIDS   CLOUDY    18  13  80 N7        29.95R WCI   9
CHARLES CITY * CLOUDY    16  14  93 N7        29.97R WCI   6
CLINTON *      CLOUDY    23  16  74 N12       29.96R WCI  12
DECORAH *      CLOUDY    14  12  92 NW5       29.96R WCI   6
DUBUQUE        CLOUDY    20  14  77 N10       29.93R WCI   9
MONTICELLO *   MOCLDY    19  12  73 CALM      29.96R
OELWEIN *      CLOUDY    14  14 100 NW7       29.96S WCI   4
WATERLOO       CLOUDY    20  14  77 N7        29.98R WCI  11
$$

IAZ064-065-067-068-078-140900-
   EAST CENTRAL IOWA

CITY           SKY/WX    TMP DP  RH WIND       PRES   REMARKS
DAVENPORT      CLOUDY    24  14  65 N10       29.97R WCI  14
IOWA CITY      PTCLDY    24  15  68 N6        29.98R WCI  17
MT. PLEASANT * CLOUDY    27  17  68 N10       29.96R WCI  17
MUSCATINE *    CLOUDY    21  14  73 NW7       29.98R WCI  13
QUAD CITIES    CLOUDY    25  15  66 N5        29.95R WCI  19
$$

IAZ062-063-075>077-085>089-095>099-140900-
   SOUTHEAST IOWA

CITY           SKY/WX    TMP DP  RH WIND       PRES   REMARKS
BURLINGTON     CLOUDY    27  18  69 N8        29.96R WCI  19
FAIRFIELD *    CLOUDY    27  16  63 N13       29.96R WCI  16
FORT MADISON * CLOUDY    27  18  69 N12       29.96R WCI  16
KEOKUK *       CLOUDY    28  19  69 N10       29.96R WCI  19
OSKALOOSA *    CLOUDY    26  19  72 N14       29.97R WCI  15
OTTUMWA        CLOUDY    27  17  66 N13       29.97R WCI  16
WASHINGTON *   CLOUDY    27  18  69 N12       29.98R WCI  16
$$

ABBREVIATIONS USED IN REMARKS
   TC - TEMPERATURES IN CELSIUS
  WCI - WIND CHILL INDEX
   HX - HEAT INDEX
  VSB - VISIBILITY
$$





USA.gov is the U.S. government's official web portal to all federal, state and local government web resources and services.